CR7BYS Weather Reports


time (UTC)temp
F
wind
direction
speed
knots
gust
knots
rain 1hr
in
rain 24hr
in
rain mn
in
humidity
%
barometer
mb
20260508094044 68 0 0.0 0.0 0.00 0.00 0.00 52 1003.1
20260508092910 71 0 0.0 0.0 0.00 0.00 0.00 48 1002.9
20260508091820 0 0 0.0 0.0 0.00 0.00 0.00 100
20260508090320 0 0 0.0 0.0 0.00 0.00 0.00 100
20260508084820 0 0 0.0 0.0 0.00 0.00 0.00 100
20260508083320 0 0 0.0 0.0 0.00 0.00 0.00 100
20260508082401 0 0 0.0 0.0 0.00 0.00 0.00 100
20260508081821 0 0 0.0 0.0 0.00 0.00 0.00 100
20260508080901 0 0 0.0 0.0 0.00 0.00 0.00 100
20260508080320 0 0 0.0 0.0 0.00 0.00 0.00 100
20260508075401 0 0 0.0 0.0 0.00 0.00 0.00 100
20260508074820 0 0 0.0 0.0 0.00 0.00 0.00 100
20260508073901 0 0 0.0 0.0 0.00 0.00 0.00 100
20260508073320 0 0 0.0 0.0 0.00 0.00 0.00 100
20260508072401 70 0 0.0 0.0 0.00 0.00 0.00 49 1002.7
20260508071820 70 0 0.0 0.0 0.00 0.00 0.00 49 1002.6
20260508070901 69 0 0.0 0.0 0.00 0.00 0.00 49 1002.5
20260508070320 69 0 0.0 0.0 0.00 0.00 0.00 50 1002.5
20260508065401 69 0 0.0 0.0 0.00 0.00 0.00 49 1002.4
20260508064820 69 0 0.0 0.0 0.00 0.00 0.00 50 1002.3
20260508063901 69 0 0.0 0.0 0.00 0.00 0.00 50 1002.4
20260508063627 69 0 0.0 0.0 0.00 0.00 0.00 49 1002.3
20260508063320 69 0 0.0 0.0 0.00 0.00 0.00 49 1002.3
20260508062127 69 0 0.0 0.0 0.00 0.00 0.00 50 1002.3
20260508061820 69 0 0.0 0.0 0.00 0.00 0.00 50 1002.3
20260508060627 69 0 0.0 0.0 0.00 0.00 0.00 51 1002.3
20260508060320 69 0 0.0 0.0 0.00 0.00 0.00 51 1002.3
20260508055127 69 0 0.0 0.0 0.00 0.00 0.00 51 1002.2
20260508054820 68 0 0.0 0.0 0.00 0.00 0.00 52 1002.2
20260508053627 68 0 0.0 0.0 0.00 0.00 0.00 54 1002.0
20260508053320 68 0 0.0 0.0 0.00 0.00 0.00 56 1002.0
20260508043716 69 0 0.0 0.0 0.00 0.00 0.00 44 994.0
20260508043708 69 0 0.0 0.0 0.00 0.00 0.00 44 993.9
20260508042216 74 0 0.0 0.0 0.00 0.00 0.00 39 993.6
20260508042208 74 0 0.0 0.0 0.00 0.00 0.00 39 993.7
20260508040617 69 0 0.0 0.0 0.00 0.00 0.00 46 993.6
20260508040253 69 0 0.0 0.0 0.00 0.00 0.00 45 993.4
20260508035051 69 0 0.0 0.0 0.00 0.00 0.00 44 993.8
20260508034915 69 0 0.0 0.0 0.00 0.00 0.00 44 993.8
20260508033415 69 0 0.0 0.0 0.00 0.00 0.00 43 993.8
20260508033254 70 0 0.0 0.0 0.00 0.00 0.00 42 993.8
20260508033212 70 0 0.0 0.0 0.00 0.00 0.00 42 993.7
20260508033146 71 0 0.0 0.0 0.00 0.00 0.00 41 993.8
20260507203038 0 0 0.0 0.0 0.00 0.00 0.00 100
20260507201620 0 0 0.0 0.0 0.00 0.00 0.00 100
20260507201538 0 0 0.0 0.0 0.00 0.00 0.00 100
20260507200120 0 0 0.0 0.0 0.00 0.00 0.00 100
20260507200038 0 0 0.0 0.0 0.00 0.00 0.00 100
20260507194620 0 0 0.0 0.0 0.00 0.00 0.00 100
20260507194538 0 0 0.0 0.0 0.00 0.00 0.00 100
20260507193120 0 0 0.0 0.0 0.00 0.00 0.00 100
20260507193038 0 0 0.0 0.0 0.00 0.00 0.00 100
20260507191620 0 0 0.0 0.0 0.00 0.00 0.00 100
20260507191538 0 0 0.0 0.0 0.00 0.00 0.00 100
20260507190120 69 0 0.0 0.0 0.00 0.00 0.00 51 1003.9
20260507190038 69 0 0.0 0.0 0.00 0.00 0.00 51 1003.8
20260507184620 69 0 0.0 0.0 0.00 0.00 0.00 52 1003.7
20260507184538 69 0 0.0 0.0 0.00 0.00 0.00 55 1003.7
20260507180248 71 0 0.0 0.0 0.00 0.00 0.00 47 1003.4
20260507175722 70 0 0.0 0.0 0.00 0.00 0.00 50 1003.4
20260507174159 0 0 0.0 0.0 0.00 0.00 0.00 100
20260507172659 0 0 0.0 0.0 0.00 0.00 0.00 100
20260507171224 70 0 0.0 0.0 0.00 0.00 0.00 53 1003.5
20260507171159 70 0 0.0 0.0 0.00 0.00 0.00 54 1003.5
20260507161508 69 0 0.0 0.0 0.00 0.00 0.00 53 1003.3
20260507160008 69 0 0.0 0.0 0.00 0.00 0.00 53 1003.3
20260507155832 69 0 0.0 0.0 0.00 0.00 0.00 53 1003.3
20260507155530 69 0 0.0 0.0 0.00 0.00 0.00 53 1003.3
20260507155310 69 0 0.0 0.0 0.00 0.00 0.00 53 1003.4